CZ-3A DEB, 35550

Orbit data source: Space-Track

CZ-3A DEB, 35550 is space debris in HEO originally from a launch on Fri, 02 Feb 2007 UTC launched from the Xichang Space Center, China (XSC). Debris objects in space refer to the collection of defunct objects orbiting the Earth. Examples of debris include non-operational satellites, rocket bodies, and fragments generated from explosions, collisions, or faulty payload assembly.

Loading next visibility...
Identifier
35550, 2007-003J
Orbit
HEO
Country
Flag of CNCN / PRC
Related business
Manufacturer
Unknown
Mission
Spacecraft
Bus & Motor
Unknown
Mass
Unknown
Launch date (UTC)
2007-02-02 (19 years ago)
Launch vehicle
Unknown
Launch site
Xichang Space Center, China (XSC)
Object type
Payload
Rocket body
Debris
Shape & HBR
Unknown shape, 0.3 m
Radar Cross Section
Medium (>0.1 m² and <1 m²)

Expand to show TLE details & history
Last TLE update: 1 day ago

TLE from 1 day ago
0 CZ-3A DEB
1 35550U 07003J   26125.00909705  .00000777  00000-0  18363-2 0  9998
2 35550  24.6065  28.9850 7370591 266.7232  14.9625  2.09179973129360
Epoch: 2026-05-05T00:13Z
TLE epoch observation values (Epoch: 2026-05-05T00:13:05.985Z)
Latitude
0.00106°
Longitude
162.78964°
Altitude
5,987.427 km
Speed
7.002 km/s
True Right ascension
01h 55m 49s
True Declination
0° 00' 04"
Sunlit
Object was in daylight at epoch
Visualization orbit readout
Latitude
Unknown
Longitude
Unknown
Altitude
Unknown
Speed
Unknown
Apparent Right ascension
Unknown
Apparent Declination
Unknown
Sunlit
N/A
Visualization observer readout
Local Sidereal Time
16:35:32
Azimuth
Unknown
Elevation
Unknown
Doppler factor
Unknown
Orbital elements
Apogee altitude
38,490.07 km
Perigee altitude
413.622 km
Semi-major axis
25,829.983 km
Eccentricity
0.73706
Inclination
24.6065°
RAAN
28.985°
Arg. of periapsis
266.7232°
True anomaly
93.06365°
Mean anomaly
14.9625°
Eccentric anomaly
44.6309°
Mean motion
0.52283 °/min
Orbital period
688.57 mins
BSTAR
0.0018363
Loading maneuver chart data...
Computing Atmospheric mass density...
Loading historical data...
Loading historical data...
Loading historical data...
Loading historical data...
Loading historical data...
Loading historical data...
Loading historical data...

Documentation

Showing up to 5 results
|